Regional Weather Roundup
Issued by NWS Bismarck, ND

Home | Current Version | Previous Version | Text Only | Print | Product List | Glossary On
Versions: 1 2 3 4 5 6 7 8 9 10 11 12 13 14 15 16 17 18 19 20 21 22 23 24 25 26 27 28 29 30 31 32 33 34 35 36 37 38 39 40 41 42 43 44 45 46 47 48 49 50
000
ASUS43 KBIS 012010
RWRBIS

NWR BROADCAST TEXT
NATIONAL WEATHER SERVICE BISMARCK ND
300 PM CDT FRI AUG 01 2014

NOTE: "FAIR" INDICATES FEW OR NO CLOUDS BELOW 12,000 FEET WITH NO
SIGNIFICANT WEATHER AND/OR OBSTRUCTIONS TO VISIBILITY.


CITY           SKY/WX    TMP DP  RH WIND       PRES   REMARKS
WILLISTON      PTSUNNY   81  58  45 E8        30.09F
MINOT          PTSUNNY   79  58  48 E5        30.09S
MINOT AFB      PTSUNNY   79  60  51 S5        30.09S
BISMARCK       SUNNY     89  55  31 S7        30.06S
DICKINSON      MOSUNNY   84  61  45 E13G18    30.07F
GARRISON         N/A     83  61  47 VRB5      30.09S
HETTINGER ARPT PTSUNNY   86  53  32 SE8       30.07R
JAMESTOWN      MOSUNNY   83  58  42 VRB3      30.08F
CARRINGTON     MOCLDY    81  59  47 E3        30.10F
CROSBY         FAIR      79  63  57 E10       30.10F
HARVEY         FAIR      81  61  50 SE6       30.09F
HAZEN          FAIR      81  57  44 E5        30.08S
MANDAN         FAIR      84  57  39 E8        30.08S
RUGBY          FAIR      81  63  54 SE7       30.09S
TIOGA          FAIR      77  63  61 SE8       30.14S
WATFORD CITY   FAIR      77  63  61 SE8       30.09R
$$

CITY           SKY/WX    TMP DP  RH WIND       PRES   REMARKS
GRAND FORKS    MOSUNNY   82  59  45 NE8       30.07S
GRAND FORKS AF MOSUNNY   81  61  51 VRB6      30.08F
DEVILS LAKE    MOSUNNY   81  57  44 S8        30.08F
FARGO          MOSUNNY   84  59  42 N10       30.06F
CAVALIER       FAIR      81  59  47 NE7       30.08S
GRAFTON        FAIR      81  61  50 N5        30.07F
GWINNER        MOCLDY    82  57  42 CALM      30.09F
LANGDON        FAIR      82  55  39 NW3       30.10F
$$

CITY           SKY/WX    TMP DP  RH WIND       PRES   REMARKS
ABERDEEN       SUNNY     83  54  36 NE5       30.08S
MOBRIDGE       SUNNY     88  59  37 SE14      30.02F
BUFFALO          N/A     88  47  24 VRB3      30.01F
RAPID CITY     PTSUNNY   78  47  33 S15       30.10S
GLASGOW        SUNNY     89  51  27 MISG      30.08S
SIDNEY         SUNNY     84  55  37 E13       30.09F
WOLF POINT     SUNNY     89  49  25 S3        30.07F
GLENDIVE       SUNNY     88  52  29 NE15      30.09S
MILES CITY     SUNNY     94  45  18 N8G18     30.06S HX  90
BAKER          SUNNY     90  49  24 NE9G18    30.08S
$$

CITY           SKY/WX    TMP DP  RH WIND       PRES   REMARKS
GREAT FALLS    SUNNY     86  45  23 VRB3      30.17F
$$



USA.gov is the U.S. government's official web portal to all federal, state and local government web resources and services.